When you browse on this site, cookies collect data to enhance your experience and personalize the content and advertising you see.
Visit our Privacy Policy to learn more. By continuing to use the site, you agree to this use of cookies and data.
  • In Portugal
  • List of Countries
  • For 7 days
  • Water Temperature
  • Satellite Maps
  • Weather Map
  • Weather Widgets
  • user-avatar
    Login

    Hourly Weather Ischgl

    Today, 18 January, Friday

    Time Temperature Precipitation Wind Pressure Humidity
    00:00 -13°C° 0.4 mm 3 mps 564 mmHg 96%
    01:00 -14°C° 0.4 mm 3 mps 564 mmHg 96%
    02:00 -13°C° 0.1 mm 2 mps 564 mmHg 96%
    03:00 -14°C° 0.1 mm 2 mps 563 mmHg 95%
    04:00 -15°C° 0.1 mm 2 mps 563 mmHg 95%
    05:00 -15°C° 0.1 mm 2 mps 563 mmHg 95%
    06:00 -16°C° 0.1 mm 2 mps 564 mmHg 95%
    07:00 -16°C° 0.1 mm 2 mps 564 mmHg 95%
    08:00 -15°C° 0.1 mm 2 mps 564 mmHg 93%
    09:00 -15°C° 0.1 mm 2 mps 565 mmHg 92%
    10:00 -14°C° 0.1 mm 2 mps 566 mmHg 90%
    11:00 -14°C° 0 mm 2 mps 566 mmHg 87%
    12:00 -13°C° 0 mm 2 mps 566 mmHg 84%
    13:00 -13°C° 0 mm 2 mps 566 mmHg 80%
    14:00 -12°C° 0 mm 1 mps 566 mmHg 82%
    15:00 -12°C° 0 mm 1 mps 565 mmHg 84%
    16:00 -13°C° 0 mm 1 mps 565 mmHg 86%
    17:00 -14°C° 0 mm 1 mps 564 mmHg 85%
    18:00 -16°C° 0 mm 1 mps 564 mmHg 84%
    19:00 -19°C° 0 mm 2 mps 563 mmHg 83%
    20:00 -19°C° 0 mm 2 mps 564 mmHg 81%
    21:00 -19°C° 0 mm 2 mps 564 mmHg 78%
    22:00 -19°C° 0 mm 2 mps 564 mmHg 75%
    23:00 -19°C° 0 mm 3 mps 564 mmHg 75%

    Tomorrow, 19 January, Saturday

    Time Temperature Precipitation Wind Pressure Humidity
    00:00 -19°C° 0 mm 3 mps 564 mmHg 75%
    01:00 -19°C° 0 mm 3 mps 564 mmHg 75%
    02:00 -19°C° 0 mm 3 mps 564 mmHg 75%
    03:00 -18°C° 0 mm 3 mps 564 mmHg 75%
    04:00 -18°C° 0 mm 3 mps 564 mmHg 75%
    05:00 -17°C° 0 mm 2 mps 564 mmHg 76%
    06:00 -17°C° 0 mm 2 mps 564 mmHg 77%
    07:00 -17°C° 0 mm 2 mps 564 mmHg 78%
    08:00 -15°C° 0 mm 2 mps 564 mmHg 79%
    09:00 -14°C° 0 mm 2 mps 565 mmHg 81%
    10:00 -13°C° 0 mm 2 mps 566 mmHg 82%
    11:00 -12°C° 0 mm 2 mps 566 mmHg 80%
    12:00 -10°C° 0 mm 2 mps 566 mmHg 78%
    13:00 -7°C° 0 mm 1 mps 566 mmHg 76%
    14:00 -8°C° 0 mm 1 mps 566 mmHg 78%
    15:00 -8°C° 0 mm 1 mps 565 mmHg 81%
    16:00 -9°C° 0 mm 1 mps 565 mmHg 84%
    17:00 -11°C° 0 mm 1 mps 564 mmHg 85%
    18:00 -13°C° 0 mm 1 mps 563 mmHg 85%
    19:00 -17°C° 0 mm 2 mps 562 mmHg 86%
    20:00 -17°C° 0 mm 2 mps 562 mmHg 85%
    21:00 -17°C° 0 mm 2 mps 562 mmHg 84%
    22:00 -18°C° 0 mm 2 mps 562 mmHg 84%
    23:00 -18°C° 0 mm 2 mps 562 mmHg 82%

    Day after tomorrow, 20 January, Sunday

    Time Temperature Precipitation Wind Pressure Humidity
    00:00 -18°C° 0 mm 2 mps 562 mmHg 81%
    01:00 -18°C° 0 mm 2 mps 561 mmHg 80%
    02:00 -18°C° 0 mm 2 mps 562 mmHg 79%
    03:00 -17°C° 0 mm 2 mps 562 mmHg 79%
    04:00 -15°C° 0 mm 1 mps 562 mmHg 78%
    05:00 -15°C° 0 mm 1 mps 562 mmHg 77%
    06:00 -16°C° 0 mm 1 mps 562 mmHg 76%
    07:00 -16°C° 0 mm 1 mps 561 mmHg 75%
    08:00 -14°C° 0 mm 1 mps 563 mmHg 76%
    09:00 -12°C° 0 mm 1 mps 564 mmHg 76%
    10:00 -10°C° 0 mm 1 mps 565 mmHg 77%
    11:00 -9°C° 0 mm 1 mps 565 mmHg 76%
    12:00 -8°C° 0 mm 1 mps 566 mmHg 75%
    13:00 -7°C° 0 mm 1 mps 566 mmHg 74%
    14:00 -8°C° 0.1 mm 1 mps 566 mmHg 79%
    15:00 -8°C° 0.1 mm 1 mps 566 mmHg 85%
    16:00 -8°C° 0.1 mm 1 mps 565 mmHg 90%
    17:00 -10°C° 0 mm 1 mps 565 mmHg 92%
    18:00 -11°C° 0 mm 1 mps 565 mmHg 94%
    19:00 -12°C° 0 mm 0 mps 564 mmHg 96%
    20:00 -13°C° 0 mm 0 mps 564 mmHg 95%
    21:00 -14°C° 0 mm 0 mps 564 mmHg 95%
    22:00 -14°C° 0 mm 0 mps 564 mmHg 94%
    23:00 -15°C° 0 mm 0 mps 564 mmHg 94%

    21 January, Monday

    Time Temperature Precipitation Wind Pressure Humidity
    00:00 -15°C° 0 mm 1 mps 564 mmHg 93%
    01:00 -16°C° 0 mm 1 mps 564 mmHg 93%
    02:00 -16°C° 0 mm 1 mps 564 mmHg 92%
    03:00 -16°C° 0 mm 1 mps 564 mmHg 92%
    04:00 -17°C° 0 mm 1 mps 564 mmHg 91%
    05:00 -17°C° 0 mm 1 mps 564 mmHg 91%
    06:00 -17°C° 0 mm 1 mps 564 mmHg 90%
    07:00 -17°C° 0 mm 1 mps 564 mmHg 90%
    08:00 -15°C° 0 mm 1 mps 565 mmHg 88%
    09:00 -13°C° 0 mm 1 mps 567 mmHg 86%
    10:00 -11°C° 0 mm 1 mps 568 mmHg 85%
    11:00 -10°C° 0 mm 1 mps 568 mmHg 82%
    12:00 -9°C° 0 mm 1 mps 568 mmHg 79%
    13:00 -8°C° 0 mm 1 mps 569 mmHg 76%
    14:00 -9°C° 0 mm 1 mps 568 mmHg 81%
    15:00 -9°C° 0 mm 1 mps 568 mmHg 86%
    16:00 -10°C° 0 mm 1 mps 568 mmHg 90%
    17:00 -11°C° 0 mm 1 mps 567 mmHg 92%
    18:00 -13°C° 0 mm 1 mps 566 mmHg 94%
    19:00 -15°C° 0 mm 0 mps 565 mmHg 96%
    20:00 -15°C° 0 mm 0 mps 565 mmHg 95%
    21:00 -16°C° 0 mm 1 mps 564 mmHg 94%
    22:00 -16°C° 0 mm 1 mps 564 mmHg 93%
    23:00 -17°C° 0 mm 1 mps 563 mmHg 91%

    22 January, Tuesday

    Time Temperature Precipitation Wind Pressure Humidity
    00:00 -17°C° 0 mm 1 mps 563 mmHg 88%
    01:00 -18°C° 0 mm 1 mps 562 mmHg 86%
    02:00 -18°C° 0 mm 1 mps 562 mmHg 81%
    03:00 -18°C° 0 mm 1 mps 561 mmHg 77%
    04:00 -18°C° 0 mm 1 mps 560 mmHg 73%
    05:00 -18°C° 0 mm 1 mps 560 mmHg 70%
    06:00 -18°C° 0 mm 1 mps 559 mmHg 66%
    07:00 -18°C° 0 mm 1 mps 559 mmHg 63%
    08:00 -16°C° 0 mm 1 mps 559 mmHg 64%
    09:00 -14°C° 0 mm 1 mps 560 mmHg 65%
    10:00 -12°C° 0 mm 1 mps 561 mmHg 65%
    11:00 -10°C° 0 mm 1 mps 561 mmHg 62%
    12:00 -9°C° 0 mm 1 mps 560 mmHg 59%
    13:00 -7°C° 0 mm 1 mps 560 mmHg 56%
    14:00 -8°C° 0 mm 1 mps 559 mmHg 62%
    15:00 -9°C° 0 mm 1 mps 558 mmHg 68%
    16:00 -10°C° 0 mm 1 mps 557 mmHg 74%
    17:00 -12°C° 0 mm 1 mps 555 mmHg 73%
    18:00 -14°C° 0 mm 1 mps 554 mmHg 73%
    19:00 -18°C° 0 mm 2 mps 553 mmHg 73%
    20:00 -16°C° 0 mm 1 mps 553 mmHg 73%
    21:00 -17°C° 0 mm 1 mps 552 mmHg 73%
    22:00 -17°C° 0 mm 1 mps 552 mmHg 73%
    23:00 -17°C° 0 mm 1 mps 552 mmHg 77%

    23 January, Wednesday

    Time Temperature Precipitation Wind Pressure Humidity
    00:00 -17°C° 0 mm 1 mps 551 mmHg 81%
    01:00 -17°C° 0 mm 1 mps 551 mmHg 85%
    02:00 -17°C° 0.2 mm 1 mps 551 mmHg 88%
    03:00 -17°C° 0.2 mm 1 mps 551 mmHg 90%
    04:00 -16°C° 0.2 mm 1 mps 551 mmHg 93%
    05:00 -16°C° 0.3 mm 1 mps 551 mmHg 94%
    06:00 -16°C° 0.3 mm 1 mps 551 mmHg 94%
    07:00 -16°C° 0.3 mm 1 mps 550 mmHg 95%
    08:00 -15°C° 0.3 mm 1 mps 551 mmHg 94%
    09:00 -16°C° 0.3 mm 2 mps 551 mmHg 93%
    10:00 -16°C° 0.3 mm 2 mps 551 mmHg 93%
    11:00 -15°C° 0.3 mm 2 mps 551 mmHg 92%
    12:00 -15°C° 0.3 mm 2 mps 550 mmHg 92%
    13:00 -15°C° 0.3 mm 3 mps 550 mmHg 91%
    14:00 -15°C° 0.6 mm 3 mps 549 mmHg 92%
    15:00 -15°C° 0.6 mm 3 mps 549 mmHg 94%
    16:00 -15°C° 0.6 mm 3 mps 549 mmHg 95%
    17:00 -16°C° 0.8 mm 3 mps 548 mmHg 95%
    18:00 -17°C° 0.8 mm 3 mps 548 mmHg 96%
    19:00 -17°C° 0.8 mm 3 mps 547 mmHg 96%
    20:00 -16°C° 0.7 mm 2 mps 548 mmHg 96%
    21:00 -16°C° 0.7 mm 2 mps 548 mmHg 96%
    22:00 -15°C° 0.7 mm 1 mps 548 mmHg 96%
    23:00 -15°C° 0.1 mm 1 mps 547 mmHg 96%
    Show more